This is the latest recevied weather packets stored in our database for station/object EA1EXV-11. If no packets are shown the sender has not sent any weather packets the latest 10 day(s).
| Time | Temp. | Humidity | Pressure | Rain* | Wind** | Luminosity | Snow |
|---|---|---|---|---|---|---|---|
| 1778206842 | 8.89° C | 79% | 1009.7 hPa | - | - | - | - |
| 1778205942 | 8.89° C | 79% | 1009.8 hPa | - | - | - | - |
| 1778205042 | 9.44° C | 79% | 1009.7 hPa | - | - | - | - |
| 1778204142 | 9.44° C | 78% | 1009.8 hPa | - | - | - | - |
| 1778203242 | 9.44° C | 78% | 1010.1 hPa | - | - | - | - |
| 1778202341 | 9.44° C | 78% | 1010.1 hPa | - | - | - | - |
| 1778201441 | 10° C | 78% | 1010.3 hPa | - | - | - | - |
| 1778200545 | 9.44° C | 77% | 1010.3 hPa | - | - | - | - |
| 1778199641 | 9.44° C | 77% | 1010.6 hPa | - | - | - | - |
| 1778198741 | 10° C | 76% | 1010.7 hPa | - | - | - | - |
| 1778197841 | 10° C | 76% | 1010.8 hPa | - | - | - | - |
| 1778196941 | 10° C | 76% | 1011 hPa | - | - | - | - |
| 1778196041 | 10.56° C | 75% | 1011 hPa | - | - | - | - |
| 1778195141 | 10.56° C | 75% | 1011.1 hPa | - | - | - | - |
| 1778194244 | 10.56° C | 74% | 1011 hPa | - | - | - | - |
| 1778193341 | 11.11° C | 73% | 1011.4 hPa | - | - | - | - |
| 1778192443 | 11.11° C | 73% | 1011.3 hPa | - | - | - | - |
| 1778191540 | 11.11° C | 72% | 1011.3 hPa | - | - | - | - |
| 1778190640 | 11.67° C | 71% | 1011.4 hPa | - | - | - | - |
| 1778189740 | 11.67° C | 70% | 1011.3 hPa | - | - | - | - |
| 1778188840 | 12.22° C | 69% | 1011.3 hPa | - | - | - | - |
| 1778187940 | 12.22° C | 68% | 1011.4 hPa | - | - | - | - |
| 1778187040 | 12.78° C | 67% | 1011.3 hPa | - | - | - | - |
| 1778186140 | 12.78° C | 66% | 1011.1 hPa | - | - | - | - |
| 1778185239 | 12.78° C | 65% | 1010.8 hPa | - | - | - | - |
* Rain since midnight (hover to see other rain measurements)
** Current wind speed in m/s (hover to see current wind gust speed)